Orbital Elements at Epoch 2459000.5 (2020-May-31.0) TDB
Reference: JPL 14 (heliocentric ecliptic J2000)
Element | Value | Uncertainty (1-sigma) | Units |
e | .165118316048187 | 6.217e-08 | |
a | 2.379775444557528 | 1.7838e-08 | au |
q | 1.986830930579363 | 1.4847e-07 | au |
i | 5.37982176831439 | 6.4669e-06 | deg |
node | 80.88672185753002 | 6.0136e-05 | deg |
peri | 335.9286566035905 | 6.5905e-05 | deg |
M | 50.71807340370217 | 2.0172e-05 | deg |
tp | 2458811.586653015015 (2019-Nov-24.08665302) | 7.59e-05 | TDB |
period | 1340.918539497013 3.67 | 1.5076e-05 4.128e-08 | d yr |
n | .2684726845040402 | 3.0185e-09 | deg/d |
Q | 2.772719958535693 | 2.0783e-08 | au |
|
| | Orbit Determination Parameters
Additional Information
|